Time,TemperatureF,DewpointF,PressureIn,WindDirection,WindDirectionDegrees,WindSpeedMPH,WindSpeedGustMPH,Humidity,HourlyPrecipIn,Conditions,Clouds,dailyrainin,SoftwareType,DateUTC
2013-06-05 00:02:00,63.0,61.0,-100.00,North,0,4.0,5.0,93,0.00,,,-99.99,,2013-06-05 05:02:00,
2013-06-05 00:12:00,63.0,61.0,-100.00,North,355,4.0,5.0,93,0.10,,,-99.99,,2013-06-05 05:12:00,
2013-06-05 00:22:00,63.0,61.0,-100.00,NNE,30,3.0,4.0,93,0.08,,,-99.99,,2013-06-05 05:22:00,
2013-06-05 00:32:00,63.0,61.0,-100.00,NE,45,3.0,5.0,93,0.10,,,-99.99,,2013-06-05 05:32:00,
2013-06-05 00:42:00,63.0,61.0,-100.00,NE,45,3.0,5.0,93,0.10,,,-99.99,,2013-06-05 05:42:00,
2013-06-05 00:52:00,63.0,61.0,-100.00,East,95,0.0,3.0,93,0.00,,,-99.99,,2013-06-05 05:52:00,
2013-06-05 01:02:00,63.0,61.0,-100.00,East,95,0.0,3.0,93,0.00,,,-99.99,,2013-06-05 06:02:00,
2013-06-05 01:12:00,63.0,61.0,-100.00,NE,55,3.0,4.0,93,0.00,,,-99.99,,2013-06-05 06:12:00,
2013-06-05 01:22:00,63.0,61.0,-100.00,ENE,70,4.0,5.0,93,0.00,,,-99.99,,2013-06-05 06:22:00,
2013-06-05 01:32:00,63.0,61.0,-100.00,East,85,6.0,8.0,93,0.10,,,-99.99,,2013-06-05 06:32:00,
2013-06-05 01:42:00,63.0,61.0,-100.00,East,85,6.0,8.0,93,0.10,,,-99.99,,2013-06-05 06:42:00,
2013-06-05 01:52:00,63.0,61.0,-100.00,ENE,70,4.0,6.0,93,0.00,,,-99.99,,2013-06-05 06:52:00,
2013-06-05 02:02:00,63.0,61.0,-100.00,ENE,70,4.0,6.0,93,0.00,,,-99.99,,2013-06-05 07:02:00,
2013-06-05 02:12:00,63.0,61.0,-100.00,ENE,60,5.0,6.0,93,0.00,,,-99.99,,2013-06-05 07:12:00,
2013-06-05 02:22:00,63.0,61.0,-100.00,ENE,65,4.0,6.0,93,0.10,,,-99.99,,2013-06-05 07:22:00,
2013-06-05 02:32:00,63.0,61.0,-100.00,NE,50,2.0,4.0,93,0.00,,,-99.99,,2013-06-05 07:32:00,
2013-06-05 02:42:00,63.0,61.0,-100.00,NE,50,2.0,4.0,93,0.00,,,-99.99,,2013-06-05 07:42:00,
2013-06-05 02:52:00,63.0,61.0,-100.00,ESE,110,4.0,4.0,93,0.11,,,-99.99,,2013-06-05 07:52:00,
2013-06-05 03:02:00,63.0,61.0,-100.00,ESE,110,4.0,4.0,93,0.11,,,-99.99,,2013-06-05 08:02:00,
2013-06-05 03:12:00,63.0,61.0,-100.00,ESE,110,4.0,4.0,93,0.11,,,-99.99,,2013-06-05 08:12:00,
2013-06-05 03:22:00,63.0,61.0,-100.00,SE,145,3.0,4.0,93,0.00,,,-99.99,,2013-06-05 08:22:00,
2013-06-05 03:32:00,63.0,61.0,-100.00,SSE,160,1.0,4.0,93,0.00,,,-99.99,,2013-06-05 08:32:00,
2013-06-05 03:42:00,63.0,61.0,-100.00,SSE,160,1.0,4.0,93,0.00,,,-99.99,,2013-06-05 08:42:00,
2013-06-05 03:52:00,63.0,61.0,-100.00,NNW,335,0.0,0.0,93,0.00,,,-99.99,,2013-06-05 08:52:00,
2013-06-05 04:02:00,63.0,61.0,-100.00,NNW,335,0.0,0.0,93,0.00,,,-99.99,,2013-06-05 09:02:00,
2013-06-05 04:12:00,63.0,61.0,-100.00,WNW,285,0.0,2.0,93,0.00,,,-99.99,,2013-06-05 09:12:00,
2013-06-05 04:22:00,63.0,61.0,-100.00,SW,220,2.0,2.0,93,0.00,,,-99.99,,2013-06-05 09:22:00,
2013-06-05 04:32:00,63.0,61.0,-100.00,NW,320,4.0,6.0,93,0.06,,,-99.99,,2013-06-05 09:32:00,
2013-06-05 04:42:00,63.0,61.0,-100.00,NW,320,4.0,6.0,93,0.06,,,-99.99,,2013-06-05 09:42:00,
2013-06-05 04:52:00,63.0,61.0,-100.00,NW,320,4.0,4.0,93,0.00,,,-99.99,,2013-06-05 09:52:00,
2013-06-05 05:03:00,63.0,61.0,-100.00,NW,320,4.0,4.0,93,0.00,,,-99.99,,2013-06-05 10:03:00,
2013-06-05 05:12:00,63.0,61.0,-100.00,NW,305,4.0,7.0,93,0.00,,,-99.99,,2013-06-05 10:12:00,
2013-06-05 05:22:00,63.0,61.0,-100.00,NW,310,7.0,9.0,93,0.00,,,-99.99,,2013-06-05 10:22:00,
2013-06-05 05:33:00,62.0,61.0,-100.00,NNW,340,7.0,11.0,93,0.00,,,-99.99,,2013-06-05 10:33:00,
2013-06-05 05:42:00,62.0,61.0,-100.00,NNW,340,7.0,11.0,93,0.00,,,-99.99,,2013-06-05 10:42:00,
2013-06-05 05:52:00,62.0,60.0,-100.00,North,350,13.0,17.0,93,0.08,,,-99.99,,2013-06-05 10:52:00,
2013-06-05 06:02:00,62.0,60.0,-100.00,North,350,13.0,17.0,93,0.08,,,-99.99,,2013-06-05 11:02:00,
2013-06-05 06:12:00,62.0,60.0,-100.00,North,0,12.0,17.0,93,0.00,,,-99.99,,2013-06-05 11:12:00,
2013-06-05 06:22:00,61.0,60.0,-100.00,North,5,12.0,17.0,93,0.00,,,-99.99,,2013-06-05 11:22:00,
2013-06-05 06:32:00,61.0,59.0,-100.00,North,5,11.0,18.0,93,0.00,,,-99.99,,2013-06-05 11:32:00,
2013-06-05 06:42:00,61.0,59.0,-100.00,North,5,11.0,18.0,93,0.00,,,-99.99,,2013-06-05 11:42:00,
2013-06-05 06:52:00,61.0,59.0,-100.00,NE,40,6.0,10.0,93,0.00,,,-99.99,,2013-06-05 11:52:00,
2013-06-05 07:02:00,61.0,59.0,-100.00,NE,40,6.0,10.0,93,0.00,,,-99.99,,2013-06-05 12:02:00,
2013-06-05 07:12:00,61.0,59.0,-100.00,NE,40,6.0,10.0,93,0.00,,,-99.99,,2013-06-05 12:12:00,
2013-06-05 07:22:00,61.0,59.0,-100.00,North,350,10.0,14.0,93,0.00,,,-99.99,,2013-06-05 12:22:00,
2013-06-05 07:32:00,61.0,59.0,-100.00,North,0,10.0,14.0,93,0.00,,,-99.99,,2013-06-05 12:32:00,
2013-06-05 07:44:00,61.0,59.0,-100.00,North,0,10.0,14.0,93,0.00,,,-99.99,,2013-06-05 12:44:00,
2013-06-05 07:52:00,60.0,58.0,-100.00,North,0,16.0,21.0,93,0.00,,,-99.99,,2013-06-05 12:52:00,
2013-06-05 08:02:00,60.0,58.0,-100.00,North,0,16.0,21.0,93,0.00,,,-99.99,,2013-06-05 13:02:00,
2013-06-05 08:12:00,60.0,58.0,-100.00,North,0,12.0,16.0,93,0.00,,,-99.99,,2013-06-05 13:12:00,
2013-06-05 08:22:00,60.0,58.0,-100.00,North,355,12.0,17.0,93,0.00,,,-99.99,,2013-06-05 13:22:00,
2013-06-05 08:32:00,60.0,58.0,-100.00,North,0,10.0,14.0,93,0.00,,,-99.99,,2013-06-05 13:32:00,
2013-06-05 08:42:00,60.0,58.0,-100.00,North,0,10.0,14.0,93,0.00,,,-99.99,,2013-06-05 13:42:00,
2013-06-05 08:52:00,60.0,59.0,-100.00,North,0,11.0,16.0,93,0.00,,,-99.99,,2013-06-05 13:52:00,
2013-06-05 09:02:00,60.0,59.0,-100.00,North,0,11.0,16.0,93,0.00,,,-99.99,,2013-06-05 14:02:00,
2013-06-05 09:12:00,61.0,59.0,-100.00,North,0,9.0,12.0,93,0.00,,,-99.99,,2013-06-05 14:12:00,
2013-06-05 09:22:00,61.0,59.0,-100.00,North,0,9.0,13.0,93,0.00,,,-99.99,,2013-06-05 14:22:00,
2013-06-05 09:32:00,60.0,59.0,-100.00,North,5,9.0,16.0,93,0.00,,,-99.99,,2013-06-05 14:32:00,
2013-06-05 09:42:00,60.0,59.0,-100.00,North,5,9.0,16.0,93,0.00,,,-99.99,,2013-06-05 14:42:00,
2013-06-05 09:52:00,61.0,59.0,-100.00,North,10,9.0,13.0,93,0.00,,,-99.99,,2013-06-05 14:52:00,
2013-06-05 10:02:00,61.0,59.0,-100.00,North,10,9.0,13.0,93,0.00,,,-99.99,,2013-06-05 15:02:00,
2013-06-05 10:12:00,61.0,59.0,-100.00,North,355,14.0,19.0,92,0.00,,,-99.99,,2013-06-05 15:12:00,
2013-06-05 10:22:00,60.0,57.0,-100.00,North,355,12.0,17.0,90,0.00,,,-99.99,,2013-06-05 15:22:00,
2013-06-05 10:33:00,60.0,56.0,-100.00,North,350,11.0,16.0,86,0.00,,,-99.99,,2013-06-05 15:33:00,
2013-06-05 10:42:00,60.0,56.0,-100.00,North,350,11.0,16.0,86,0.00,,,-99.99,,2013-06-05 15:42:00,
2013-06-05 10:53:00,62.0,55.0,-100.00,North,5,8.0,14.0,78,0.00,,,-99.99,,2013-06-05 15:53:00,
2013-06-05 11:03:00,62.0,55.0,-100.00,North,5,8.0,14.0,78,0.00,,,-99.99,,2013-06-05 16:03:00,
2013-06-05 11:12:00,63.0,56.0,-100.00,North,0,11.0,17.0,75,0.00,,,-99.99,,2013-06-05 16:12:00,
2013-06-05 11:22:00,64.0,56.0,-100.00,NNW,345,10.0,15.0,74,0.00,,,-99.99,,2013-06-05 16:22:00,
2013-06-05 11:32:00,64.0,55.0,-100.00,North,355,12.0,17.0,73,0.00,,,-99.99,,2013-06-05 16:32:00,
2013-06-05 11:42:00,64.0,55.0,-100.00,North,355,12.0,17.0,73,0.00,,,-99.99,,2013-06-05 16:42:00,
2013-06-05 11:53:00,64.0,55.0,-100.00,North,0,12.0,18.0,70,0.00,,,-99.99,,2013-06-05 16:53:00,
2013-06-05 12:02:00,64.0,55.0,-100.00,North,0,12.0,18.0,70,0.00,,,-99.99,,2013-06-05 17:02:00,
2013-06-05 12:12:00,64.0,54.0,-100.00,North,0,14.0,17.0,69,0.00,,,-99.99,,2013-06-05 17:12:00,
2013-06-05 12:22:00,65.0,54.0,-100.00,North,355,11.0,17.0,68,0.00,,,-99.99,,2013-06-05 17:22:00,
2013-06-05 12:32:00,65.0,54.0,-100.00,North,355,12.0,17.0,66,0.00,,,-99.99,,2013-06-05 17:32:00,
2013-06-05 12:42:00,65.0,54.0,-100.00,North,355,12.0,17.0,66,0.00,,,-99.99,,2013-06-05 17:42:00,
2013-06-05 12:52:00,66.0,53.0,-100.00,North,355,13.0,17.0,62,0.00,,,-99.99,,2013-06-05 17:52:00,
2013-06-05 13:02:00,66.0,53.0,-100.00,North,355,13.0,17.0,62,0.00,,,-99.99,,2013-06-05 18:02:00,
2013-06-05 13:12:00,65.0,52.0,-100.00,North,5,11.0,17.0,62,0.00,,,-99.99,,2013-06-05 18:12:00,
2013-06-05 13:22:00,65.0,53.0,-100.00,North,5,10.0,16.0,64,0.00,,,-99.99,,2013-06-05 18:22:00,
2013-06-05 13:32:00,65.0,53.0,-100.00,NNW,345,9.0,15.0,65,0.00,,,-99.99,,2013-06-05 18:32:00,
2013-06-05 13:42:00,65.0,53.0,-100.00,NNW,345,9.0,15.0,65,0.00,,,-99.99,,2013-06-05 18:42:00,
2013-06-05 13:52:00,65.0,53.0,-100.00,North,355,9.0,13.0,64,0.00,,,-99.99,,2013-06-05 18:52:00,
2013-06-05 14:02:00,65.0,53.0,-100.00,North,355,9.0,13.0,64,0.00,,,-99.99,,2013-06-05 19:02:00,
2013-06-05 14:12:00,66.0,53.0,-100.00,North,350,8.0,12.0,63,0.00,,,-99.99,,2013-06-05 19:12:00,
2013-06-05 14:23:00,66.0,53.0,-100.00,NNW,330,7.0,12.0,62,0.00,,,-99.99,,2013-06-05 19:23:00,
2013-06-05 14:32:00,67.0,53.0,-100.00,North,10,7.0,11.0,61,0.00,,,-99.99,,2013-06-05 19:32:00,
2013-06-05 14:42:00,67.0,53.0,-100.00,North,10,7.0,11.0,61,0.00,,,-99.99,,2013-06-05 19:42:00,
2013-06-05 14:52:00,68.0,55.0,-100.00,North,5,7.0,13.0,63,0.00,,,-99.99,,2013-06-05 19:52:00,
2013-06-05 15:02:00,68.0,55.0,-100.00,North,5,7.0,13.0,63,0.00,,,-99.99,,2013-06-05 20:02:00,
2013-06-05 15:12:00,67.0,54.0,-100.00,North,355,12.0,16.0,61,0.00,,,-99.99,,2013-06-05 20:12:00,
2013-06-05 15:22:00,67.0,54.0,-100.00,North,0,9.0,14.0,61,0.00,,,-99.99,,2013-06-05 20:22:00,
2013-06-05 15:32:00,67.0,53.0,-100.00,North,0,9.0,14.0,60,0.00,,,-99.99,,2013-06-05 20:32:00,
2013-06-05 15:42:00,67.0,53.0,-100.00,North,0,9.0,14.0,60,0.00,,,-99.99,,2013-06-05 20:42:00,
2013-06-05 15:52:00,67.0,53.0,-100.00,North,355,9.0,12.0,60,0.00,,,-99.99,,2013-06-05 20:52:00,
2013-06-05 16:02:00,67.0,53.0,-100.00,North,355,9.0,12.0,60,0.00,,,-99.99,,2013-06-05 21:02:00,
2013-06-05 16:12:00,67.0,52.0,-100.00,North,355,9.0,12.0,57,0.00,,,-99.99,,2013-06-05 21:12:00,
2013-06-05 16:22:00,67.0,52.0,-100.00,NNW,330,7.0,12.0,58,0.00,,,-99.99,,2013-06-05 21:22:00,
2013-06-05 16:33:00,68.0,53.0,-100.00,WNW,300,7.0,11.0,59,0.00,,,-99.99,,2013-06-05 21:33:00,
2013-06-05 16:43:00,68.0,53.0,-100.00,WNW,300,7.0,11.0,59,0.00,,,-99.99,,2013-06-05 21:43:00,
2013-06-05 16:53:00,68.0,53.0,-100.00,NNW,330,7.0,12.0,58,0.00,,,-99.99,,2013-06-05 21:53:00,
2013-06-05 17:02:00,68.0,53.0,-100.00,NNW,330,7.0,12.0,58,0.00,,,-99.99,,2013-06-05 22:02:00,
2013-06-05 17:12:00,69.0,53.0,-100.00,North,355,6.0,12.0,58,0.00,,,-99.99,,2013-06-05 22:12:00,
2013-06-05 17:22:00,68.0,53.0,-100.00,NNW,330,5.0,11.0,59,0.00,,,-99.99,,2013-06-05 22:22:00,
2013-06-05 17:32:00,69.0,53.0,-100.00,NNW,335,9.0,12.0,57,0.00,,,-99.99,,2013-06-05 22:32:00,
2013-06-05 17:42:00,69.0,53.0,-100.00,NNW,335,9.0,12.0,57,0.00,,,-99.99,,2013-06-05 22:42:00,
2013-06-05 17:52:00,69.0,52.0,-100.00,NW,315,9.0,17.0,53,0.00,,,-99.99,,2013-06-05 22:52:00,
2013-06-05 18:02:00,69.0,52.0,-100.00,NW,315,9.0,17.0,53,0.00,,,-99.99,,2013-06-05 23:02:00,
2013-06-05 18:12:00,67.0,51.0,-100.00,NW,310,5.0,13.0,56,0.00,,,-99.99,,2013-06-05 23:12:00,
2013-06-05 18:22:00,69.0,52.0,-100.00,NW,325,7.0,9.0,54,0.00,,,-99.99,,2013-06-05 23:22:00,
2013-06-05 18:32:00,68.0,52.0,-100.00,NW,325,6.0,9.0,56,0.00,,,-99.99,,2013-06-05 23:32:00,
2013-06-05 18:42:00,68.0,52.0,-100.00,NW,325,6.0,9.0,56,0.00,,,-99.99,,2013-06-05 23:42:00,
2013-06-05 18:53:00,69.0,51.0,-100.00,NW,315,9.0,14.0,52,0.00,,,-99.99,,2013-06-05 23:53:00,
2013-06-05 19:02:00,69.0,51.0,-100.00,NW,315,9.0,14.0,52,0.00,,,-99.99,,2013-06-06 00:02:00,
2013-06-05 19:12:00,68.0,51.0,-100.00,NW,305,6.0,11.0,55,0.00,,,-99.99,,2013-06-06 00:12:00,
2013-06-05 19:22:00,66.0,50.0,-100.00,NNW,330,7.0,10.0,55,0.00,,,-99.99,,2013-06-06 00:22:00,
2013-06-05 19:32:00,66.0,50.0,-100.00,NW,320,8.0,11.0,55,0.00,,,-99.99,,2013-06-06 00:32:00,
2013-06-05 19:42:00,66.0,50.0,-100.00,NW,320,8.0,11.0,55,0.00,,,-99.99,,2013-06-06 00:42:00,
2013-06-05 19:52:00,66.0,51.0,-100.00,North,355,9.0,12.0,57,0.00,,,-99.99,,2013-06-06 00:52:00,
2013-06-05 20:02:00,66.0,51.0,-100.00,North,355,9.0,12.0,57,0.00,,,-99.99,,2013-06-06 01:02:00,
2013-06-05 20:12:00,66.0,51.0,-100.00,NNW,345,8.0,14.0,57,0.00,,,-99.99,,2013-06-06 01:12:00,
2013-06-05 20:22:00,65.0,50.0,-100.00,NNW,335,7.0,13.0,58,0.00,,,-99.99,,2013-06-06 01:22:00,
2013-06-05 20:32:00,64.0,50.0,-100.00,North,350,7.0,12.0,60,0.00,,,-99.99,,2013-06-06 01:32:00,
2013-06-05 20:42:00,64.0,50.0,-100.00,North,350,7.0,12.0,60,0.00,,,-99.99,,2013-06-06 01:42:00,
2013-06-05 20:52:00,63.0,50.0,-100.00,NNW,345,7.0,13.0,62,0.00,,,-99.99,,2013-06-06 01:52:00,
2013-06-05 21:02:00,63.0,50.0,-100.00,NNW,345,7.0,13.0,62,0.00,,,-99.99,,2013-06-06 02:02:00,
2013-06-05 21:12:00,62.0,49.0,-100.00,North,355,9.0,13.0,62,0.00,,,-99.99,,2013-06-06 02:12:00,
2013-06-05 21:22:00,62.0,49.0,-100.00,North,350,10.0,13.0,62,0.00,,,-99.99,,2013-06-06 02:22:00,
2013-06-05 21:32:00,61.0,49.0,-100.00,North,355,9.0,11.0,64,0.00,,,-99.99,,2013-06-06 02:32:00,
2013-06-05 21:42:00,61.0,49.0,-100.00,North,355,9.0,11.0,64,0.00,,,-99.99,,2013-06-06 02:42:00,
2013-06-05 21:52:00,61.0,49.0,-100.00,North,355,9.0,11.0,64,0.00,,,-99.99,,2013-06-06 02:52:00,
2013-06-05 22:02:00,60.0,50.0,-100.00,North,355,7.0,10.0,67,0.00,,,-99.99,,2013-06-06 03:02:00,
2013-06-05 22:12:00,60.0,50.0,-100.00,NNW,340,4.0,9.0,69,0.00,,,-99.99,,2013-06-06 03:12:00,
2013-06-05 22:22:00,59.0,50.0,-100.00,NNW,345,3.0,6.0,71,0.00,,,-99.99,,2013-06-06 03:22:00,
2013-06-05 22:33:00,59.0,50.0,-100.00,NNW,345,2.0,4.0,72,0.00,,,-99.99,,2013-06-06 03:33:00,
2013-06-05 22:43:00,59.0,50.0,-100.00,NNW,345,2.0,4.0,72,0.00,,,-99.99,,2013-06-06 03:43:00,
2013-06-05 22:52:00,59.0,50.0,-100.00,NW,325,2.0,3.0,71,0.00,,,-99.99,,2013-06-06 03:52:00,
2013-06-05 23:03:00,59.0,50.0,-100.00,NW,325,2.0,3.0,71,0.00,,,-99.99,,2013-06-06 04:03:00,
2013-06-05 23:13:00,59.0,50.0,-100.00,NW,315,2.0,6.0,70,0.00,,,-99.99,,2013-06-06 04:13:00,
2013-06-05 23:23:00,59.0,49.0,-100.00,NNW,335,2.0,3.0,71,0.00,,,-99.99,,2013-06-06 04:23:00,
2013-06-05 23:33:00,58.0,50.0,-100.00,NW,320,3.0,4.0,72,0.00,,,-99.99,,2013-06-06 04:33:00,
2013-06-05 23:42:00,58.0,50.0,-100.00,NW,320,3.0,4.0,72,0.00,,,-99.99,,2013-06-06 04:42:00,
2013-06-05 23:53:00,57.0,50.0,-100.00,NW,320,4.0,4.0,77,0.00,,,-99.99,,2013-06-06 04:53:00,